Weather History for Long Beach, CA

Change the Weather History Date:

Wednesday, February 13, 2013

  Actual Average Record
Temperature  
Mean Temperature 54 °F 57 °F  
Max Temperature 66 °F 67 °F 85 °F (1985)
Min Temperature 41 °F 48 °F 37 °F (1965)
Degree Days  
Heating Degree Days 11 8  
Month to date heating degree days 129 104  
Since 1 July heating degree days 750 783  
Cooling Degree Days 0 0  
Month to date cooling degree days 1 0  
Year to date cooling degree days 1 3  
Growing Degree Days 4 (Base 50)    
Moisture  
Dew Point 41 °F    
Average Humidity 60    
Maximum Humidity 82    
Minimum Humidity 37    
Precipitation  
Precipitation 0.00 in 0.11 in 1.99 in (1980)
Month to date precipitation 0.15 1.33  
Year to date precipitation 1.19 3.93  
Since 1 July precipitation 4.99 7.75  
Sea Level Pressure  
Sea Level Pressure 30.20 in    
Wind  
Wind Speed 3 mph (WNW)    
Max Wind Speed 13 mph    
Max Gust Speed 16 mph    
Visibility 10 miles    
Events      
T = Trace of Precipitation, MM = Missing Value Source: NWS Daily Summary

Daily Weather History Graph

Daily Weather History Graph

Search for Another Location

Airport:

Trip Planner

Search our weather history database for the weather conditions in past years. The results will help you decide how hot, cold, wet, or windy it might be!

Date:

Astronomy

Feb. 13, 2013 Rise Set
Actual Time 6:38 AM PST 5:35 PM PST
Civil Twilight 6:13 AM PST 6:00 PM PST
Nautical Twilight 5:43 AM PST 6:30 PM PST
Astronomical Twilight 5:14 AM PST 6:59 PM PST
Moon 8:23 AM PST (2/13) 9:27 PM PST (2/13)
Length of Visible Light 11h 47m
Length of Day
10h 56m
Waxing Crescent, 14% of the Moon is Illuminated
Feb 13
Waxing Crescent
Feb 17
First Quarter
Feb 25
Full
Mar 4
Last Quarter
Mar 11
New

Hourly Weather History & Observations

Time (PST) Temp. Dew Point Humidity Pressure Visibility Wind Dir Wind Speed Gust Speed Precip Events Conditions
12:53 AM 46.9 °F 39.9 °F 77% 30.26 in 10.0 mi Calm Calm - N/A   Clear
1:53 AM 46.0 °F 37.9 °F 73% 30.25 in 10.0 mi Calm Calm - N/A   Clear
2:53 AM 44.1 °F 37.9 °F 79% 30.24 in 10.0 mi Calm Calm - N/A   Clear
3:53 AM 44.1 °F 37.0 °F 76% 30.23 in 10.0 mi Calm Calm - N/A   Clear
4:53 AM 43.0 °F 37.9 °F 82% 30.23 in 10.0 mi Calm Calm - N/A   Clear
5:53 AM 43.0 °F 37.9 °F 82% 30.24 in 9.0 mi Calm Calm - N/A   Clear
6:53 AM 42.1 °F 37.0 °F 82% 30.25 in 8.0 mi Calm Calm - N/A   Clear
7:53 AM 46.0 °F 39.0 °F 76% 30.26 in 8.0 mi Calm Calm - N/A   Clear
8:53 AM 53.1 °F 39.9 °F 61% 30.27 in 10.0 mi NE 3.5 mph - N/A   Clear
9:53 AM 57.9 °F 39.9 °F 51% 30.26 in 10.0 mi Calm Calm - N/A   Clear
10:53 AM 61.0 °F 35.1 °F 38% 30.25 in 10.0 mi WNW 3.5 mph - N/A   Clear
11:53 AM 64.0 °F 37.9 °F 38% 30.22 in 9.0 mi WSW 4.6 mph - N/A   Clear
12:53 PM 64.0 °F 41.0 °F 43% 30.19 in 10.0 mi Variable 5.8 mph - N/A   Clear
1:53 PM 64.9 °F 43.0 °F 45% 30.17 in 10.0 mi South 6.9 mph - N/A   Clear
2:53 PM 66.0 °F 42.1 °F 42% 30.15 in 9.0 mi South 5.8 mph - N/A   Clear
3:53 PM 66.0 °F 44.1 °F 45% 30.14 in 10.0 mi WNW 8.1 mph - N/A   Clear
4:53 PM 61.0 °F 42.1 °F 50% 30.14 in 10.0 mi WNW 9.2 mph - N/A   Clear
5:53 PM 57.0 °F 45.0 °F 64% 30.15 in 10.0 mi NW 8.1 mph - N/A   Clear
6:53 PM 55.0 °F 46.0 °F 72% 30.15 in 10.0 mi NW 4.6 mph - N/A   Clear
7:53 PM 55.0 °F 45.0 °F 69% 30.16 in 10.0 mi NNW 3.5 mph - N/A   Clear
8:53 PM 52.0 °F 45.0 °F 77% 30.17 in 10.0 mi Calm Calm - N/A   Clear
9:53 PM 52.0 °F 45.0 °F 77% 30.17 in 10.0 mi Calm Calm - N/A   Clear
10:53 PM 50.0 °F 43.0 °F 77% 30.17 in 10.0 mi Calm Calm - N/A   Clear
11:53 PM 48.0 °F 44.1 °F 86% 30.18 in 9.0 mi Calm Calm - N/A   Clear